This demonstration page uses our WeatherBlox Daily Observations layout. Learn more.

Left ArrowRight Arrow

44.8408, -93.29828

Hourly Observations for November 15, 2019

Temp ( °F °C ) Dew Point ( °F °C ) Humidity (%) Winds ( mph kmh ) Pressure ( in mb ) Visibility ( mi km ) Precip ( " mm )
12:32 am 00:32 Cloudy 31 -0.6 26 -3.3 82 82 Calm 30.27 1025 9 14 0.00 0.00
12:53 am 00:53 Cloudy 32 0 26 -3.3 79 79 SW 3 6 30.26 1025 9 14 0.00 0.00
1:13 am 01:13 Cloudy 31 -0.6 26 -3.3 82 82 SSW 3 6 30.28 1025 9 14 0.00 0.00
1:53 am 01:53 Cloudy 32 0 27 -2.8 82 82 Calm 30.27 1025 9 14 0.00 0.00
2:53 am 02:53 Cloudy 32 0 27 -2.8 82 82 Calm 30.28 1025 9 14 0.00 0.00
3:02 am 03:02 Cloudy 33 0.6 27 -2.8 78 78 Calm 30.29 1026 9 14 0.00 0.00
3:53 am 03:53 Cloudy 32 0 27 -2.8 82 82 Calm 30.28 1025 9 14 0.00 0.00
4:53 am 04:53 Cloudy 32 0 27 -2.8 82 82 Calm 30.30 1026 9 14 0.00 0.00
5:35 am 05:35 Cloudy 31 -0.6 27 -2.8 85 85 Calm 30.33 1027 9 14 0.00 0.00
5:53 am 05:53 Cloudy 31 -0.6 27 -2.8 85 85 Calm 30.31 1027 9 14 0.00 0.00
6:53 am 06:53 Cloudy 32 0 27 -2.8 82 82 SW 6 9 30.33 1027 8 13 0.00 0.00
7:53 am 07:53 Mostly Cloudy 31 -0.6 27 -2.8 85 85 Calm 30.35 1028 8 13 0.00 0.00
8:53 am 08:53 Mostly Cloudy 35 1.7 28 -2.2 76 76 Calm 30.36 1028 9 14 0.00 0.00
9:53 am 09:53 Mostly Cloudy 36 2.2 27 -2.8 70 70 E 8 13 30.37 1028 10 16 0.00 0.00
10:53 am 10:53 Mostly Cloudy 38 3.3 24 -4.4 57 57 E 7 11 30.38 1029 10 16 0.00 0.00
11:53 am 11:53 Mostly Cloudy 38 3.3 24 -4.4 57 57 ENE 7 11 30.37 1029 10 16 0.00 0.00
12:53 pm 12:53 Mostly Cloudy 38 3.3 24 -4.4 57 57 E 8 13 30.37 1028 10 16 0.00 0.00
1:29 pm 13:29 Mostly Cloudy 38 3.3 24 -4.4 57 57 E 8 13 30.36 1028 10 16 0.00 0.00
1:53 pm 13:53 Mostly Cloudy 38 3.3 25 -3.9 60 60 ESE 8 13 30.36 1028 10 16 0.00 0.00
2:53 pm 14:53 Mostly Cloudy 39 3.9 27 -2.8 62 62 E 9 15 30.34 1028 10 16 0.00 0.00
3:53 pm 15:53 Mostly Cloudy 38 3.3 27 -2.8 65 65 ESE 10 17 30.34 1027 10 16 0.00 0.00
4:53 pm 16:53 Partly Cloudy 37 2.8 23 -5 57 57 E 8 13 30.34 1027 10 16 0.00 0.00
5:53 pm 17:53 Partly Cloudy 35 1.7 22 -5.6 59 59 E 7 11 30.33 1027 10 16 0.00 0.00
6:53 pm 18:53 Partly Cloudy 35 1.7 21 -6.1 57 57 E 12 19 30.34 1027 10 16 0.00 0.00
7:53 pm 19:53 Mostly Cloudy 35 1.7 19 -7.2 52 52 ESE 12 19 30.33 1027 10 16 0.00 0.00
8:53 pm 20:53 Mostly Cloudy 35 1.7 17 -8.3 48 48 ESE 12 19 30.33 1027 10 16 0.00 0.00
9:53 pm 21:53 Mostly Clear 33 0.6 19 -7.2 56 56 SE 12 19 30.32 1027 10 16 0.00 0.00
10:53 pm 22:53 Mostly Clear 33 0.6 20 -6.7 58 58 SE 12 19 30.31 1027 10 16 0.00 0.00
11:53 pm 23:53 Mostly Clear 34 1.1 24 -4.4 67 67 SE 9 15 30.30 1026 10 16 0.00 0.00

Powered by AerisWeather